Showing default

RANGE A, 43773

Orbit data source: Space-Track

RANGE A, 43773 is a payload satellite owned by GaTech (US) in SSO that was launched on Mon, 03 Dec 2018 UTC via an FALCON 9 launch vehicle from the Air Force Western Test Range (AFWTR). Payload-class satellites include a variety of spacecraft equipped with specific instruments for various scientific and technological missions. These include communications satellites like Starlink; space stations such as the ISS; scientific satellites like the Hubble; Earth observation satellites from companies like Planet Labs, Umbra, and HawkEye 360; GPS; miniature CubeSats for education and research; and military/defense satellites.

Loading next visibility...
Identifier
43773, 2018-099R
Orbit
SSO
Country
Flag of USUS
Related business
Manufacturer
GaTech
Mission
Operational Amateur Technology
Bus & Motor
CUBESAT 1.5U, Unknown motor
Mass
2 kg wet, 2 kg dry
Launch date (UTC)
2018-12-03 (7 years ago)
Launch vehicle
FALCON 9
Launch site
Air Force Western Test Range (AFWTR)
Object type
Payload
Rocket body
Debris
Shape & HBR
Box + 2 Pan, 0.1 m
Radar Cross Section
0.025 m², Small (<0.1 m²)

Expand to show TLE details & history
Last TLE update: 20 hours ago

TLE from 20 hours ago
0 RANGE A
1 43773U 18099R   25261.02880725  .00004300  00000-0  26837-3 0  9995
2 43773  97.4393 306.5231 0010660 198.4275 161.6570 15.09972912371372
Epoch: 2025-09-18T00:41Z
TLE epoch observation values (Epoch: 2025-09-18T00:41:28.946Z)
Latitude
-0.00001°
Longitude
-61.04379°
Altitude
546.357 km
Speed
7.585 km/s
True Right ascension
20h 26m 05s
True Declination
0° 00' 00"
Sunlit
Object was in full shadow at epoch
Visualization orbit readout
Latitude
Unknown
Longitude
Unknown
Altitude
Unknown
Speed
Unknown
Apparent Right ascension
Unknown
Apparent Declination
Unknown
Sunlit
N/A
Visualization observer readout
Local Sidereal Time
13:32:44
Azimuth
Unknown
Elevation
Unknown
Doppler factor
Unknown
Orbital elements
Apogee altitude
540.631 km
Perigee altitude
525.896 km
Semi-major axis
6,911.4 km
Eccentricity
0.00107
Inclination
97.4393°
RAAN
306.5231°
Arg. of periapsis
198.4275°
True anomaly
161.69539°
Mean anomaly
161.657°
Eccentric anomaly
161.6762°
Mean motion
3.77741 °/min
Orbital period
95.3 mins
BSTAR
0.00026837
Loading maneuver chart data...
Computing Atmospheric mass density...
Loading historical data...
Loading historical data...
Loading historical data...
Loading historical data...
Loading historical data...
Loading historical data...
Loading historical data...

Documentation

Showing up to 5 results
|